User: anonymous   Login
Location: Unspecified
(0.0000°N, 0.0000°E)
Time: 00:25:22
(UTC+00:00)
Language:

NAVSTAR 65 (USA 213) - Orbit

View from above orbital plane
View from above orbital plane
View from above satellite
View from above satellite

Ground track
Ground track

The orbit data is extracted from the following two-line orbital elements,

1 36585U 10022A   14329.53250300 -.00000052  00000-0  00000+0 0  7893
2 36585 056.0040 017.6380 0036831 036.2117 358.6212 02.00553942 32934
Epoch (UTC): 25 November 2014 12:46:48
Eccentricity: 0.0036831
inclination: 56.0040°
perigee height: 20085 km
apogee height: 20280 km
right ascension of ascending node: 17.6380°
argument of perigee: 36.2117°
revolutions per day: 2.00553942
mean anomaly at epoch: 358.6212°
orbit number at epoch: 3293

The dashed part of the orbit path shows where the satellite is in the earth's shadow,  

DLR